Flag for Denmark Weather past 2 weeks in Aarhus, Denmark

Now
50 °F

Overcast.


Feels Like: 44 °F
Forecast: 43 / 46 °F
Wind: 16 mph from West

Location: Tirstrup

Current Time: Dec 22, 2014 at 7:32:53 AM

Latest Report: Dec 22, 2014 at 6:50 AM


Visibility: N/A

Pressure: 29.45 "Hg

Humidity: 82%

Dew point: 45 °F

Location of AarhusLocation

Historic Weather in Aarhus — Graph

°F

Aarhus temperature yesterday

Maximum temperature yesterday: 46 °F (at 9:50 PM)
Minimum temperature yesterday: 37 °F (at 12:20 AM)
Average temperature yesterday: 42 °F

Past Weeks' High & Low Weather Summary

 TemperatureHumidityPressure
High52 °F (Dec 18, 11:50 PM)94% (Dec 18, 1:50 PM)30.15 "Hg (Dec 18, 1:50 PM)
Low30 °F (Dec 9, 12:20 AM)66% (Dec 11, 9:50 AM)28.88 "Hg (Dec 12, 5:20 PM)
Average40 °F83%29.59 "Hg
* Reported Dec 7 6:20 AM — Dec 22 6:20 AM, Aarhus, Weather by CustomWeather, © 2014

Note: Actual official high and low records may vary slightly from our data, if they occured in-between our weather recording intervals... More about our weather records

Advertising

Aarhus weather history for previous 24 hours

 ConditionsComfort  
Time TempWeatherWind HumidityBarometerVisibility
6:20 AM
Dec 22
50 °FPassing clouds.15 mph82%29.47 "HgN/A
5:50 AM50 °FLow clouds.16 mph88%29.47 "HgN/A
5:20 AM50 °FLow clouds.14 mph88%29.47 "HgN/A
4:50 AM50 °FLow clouds.13 mph88%29.47 "Hg3 mi
4:20 AM50 °FLight rain. Low clouds.16 mph88%29.47 "HgN/A
3:50 AM50 °FDrizzle. Fog.15 mph88%29.47 "Hg2 mi
3:20 AM48 °FDrizzle. Low clouds.13 mph94%29.47 "Hg4 mi
2:50 AM48 °FDrizzle. Low clouds.10 mph87%29.47 "HgN/A
2:20 AM48 °FDrizzle. Low clouds.12 mph87%29.50 "HgN/A
1:50 AM46 °FDrizzle. Low clouds.13 mph93%29.50 "HgN/A
1:20 AM46 °FDrizzle. Low clouds.13 mph93%29.50 "HgN/A
12:50 AM46 °FDrizzle. Low clouds.12 mph93%29.50 "Hg5 mi
12:20 AM46 °FDrizzle. Low clouds.12 mph87%29.53 "HgN/A
11:50 PM
Dec 21
46 °FDrizzle. Low clouds.12 mph87%29.53 "HgN/A
11:20 PM46 °FLight rain. Low clouds.9 mph87%29.56 "HgN/A
10:20 PM46 °FDrizzle. Low clouds.9 mph87%29.59 "HgN/A
9:50 PM46 °FDrizzle. Low clouds.9 mph87%29.59 "HgN/A
9:20 PM45 °FLight rain. Low clouds.8 mph93%29.62 "Hg6 mi
8:50 PM45 °FDrizzle. Low clouds.9 mph87%29.65 "Hg4 mi
8:20 PM45 °FDrizzle. Low clouds.10 mph87%29.65 "Hg6 mi
7:50 PM45 °FLow clouds.9 mph87%29.68 "Hg4 mi
7:20 PM45 °FLow clouds.9 mph87%29.68 "Hg3 mi
6:50 PM45 °FFog.9 mph87%29.71 "Hg2 mi
6:20 PM45 °FDrizzle. Low clouds.9 mph87%29.71 "Hg5 mi
5:50 PM43 °FDrizzle. Low clouds.8 mph93%29.74 "Hg4 mi
5:20 PM43 °FDrizzle. Fog.7 mph87%29.77 "Hg3 mi
4:50 PM43 °FDrizzle. Overcast.8 mph87%29.77 "HgN/A
4:20 PM43 °FLight rain. Overcast.7 mph87%29.80 "HgN/A
3:50 PM43 °FDrizzle. Mostly cloudy.7 mph87%29.80 "Hg6 mi
3:20 PM43 °FLight rain. Partly sunny.7 mph87%29.83 "Hg5 mi
2:50 PM43 °FLight rain. Overcast.7 mph87%29.83 "Hg5 mi
2:20 PM43 °FSprinkles. Partly sunny.8 mph81%29.86 "HgN/A
1:50 PM43 °FSprinkles. Partly sunny.7 mph81%29.89 "HgN/A
1:20 PM43 °FSprinkles. Partly sunny.8 mph81%29.92 "HgN/A
12:20 PM43 °FPartly sunny.8 mph76%29.95 "HgN/A
11:50 AM41 °FBroken clouds.8 mph81%29.95 "HgN/A
11:20 AM41 °FOvercast.8 mph81%29.95 "HgN/A
10:50 AM41 °FScattered clouds.8 mph81%29.98 "HgN/A
10:20 AM41 °FQuite cool.9 mph81%29.98 "HgN/A
9:50 AM39 °FPassing clouds.9 mph87%29.98 "HgN/A
9:20 AM39 °FPartly sunny.13 mph87%29.98 "HgN/A
8:50 AM39 °FPassing clouds.10 mph81%29.98 "HgN/A
8:20 AM39 °FPassing clouds.9 mph81%29.98 "HgN/A
7:50 AM41 °FQuite cool.14 mph76%29.98 "HgN/A
7:20 AM41 °FQuite cool.15 mph76%29.98 "HgN/A
Weather by CustomWeather, © 2014

See weather overviewHow to use our weather pages